Temp
10 9 11 9 10 10 12 12 13 14 14 14 15 15 15 15 15 15 14 14 13 13 12 12 12 12 12 12 12 12 12 12 11 11 11 11 11 11 10 9 9 9 9 9
10 10 12 11 11 11 12 11 12 13 14 14 15 15 15 15 15 15 15 15 15 13 13 13 12 13 13 13 13 13 12 12 12 12 11 11 10 10 10 9 10 9 10 9
11 11 11 11 11 11 11 11 12 12 13 14 14 14 15 16 16 16 16 15 14 14 13 14 13 13 13 13 13 13 13 13 12 12 12 11 11 11 11 11 10 10 10 9
10 9 11 11 11 11 10 12 11 11 12 13 13 16 15 15 16 16 16 17 15 14 14 14 14 14 14 14 14 13 13 13 13 12 12 12 12 11 11 10 10 10 9 9
10 10 9 11 12 10 10 10 12 11 12 12 13 14 15 15 15 16 17 17 17 15 15 14 14 15 14 14 13 13 13 13 13 13 13 12 12 12 11 11 11 10 10 10
11 11 10 12 12 11 10 11 11 11 12 12 13 13 15 14 16 17 17 17 17 16 15 15 14 14 14 14 14 13 13 13 13 13 13 12 12 12 11 11 11 11 11 10
9 10 11 10 10 10 10 11 12 12 13 14 14 13 14 15 15 17 17 18 18 17 16 15 15 15 14 14 14 14 14 14 13 13 13 13 13 12 12 11 11 11 11 11
10 9 10 11 10 10 10 11 13 13 15 16 13 14 15 15 16 17 17 17 17 17 17 16 16 16 15 15 14 14 14 14 14 13 13 13 13 12 12 11 12 12 12 11
11 11 11 11 11 10 10 10 12 13 12 13 15 14 14 15 16 16 17 17 17 17 17 18 17 16 16 16 15 15 14 14 14 14 13 13 13 13 12 12 12 12 12 11
10 11 11 11 11 11 11 11 10 11 13 13 15 13 15 16 16 16 17 18 18 17 18 18 18 18 17 17 16 16 15 14 14 14 14 14 13 13 13 12 12 12 12 12
9 10 11 10 10 11 10 10 11 12 12 15 15 16 15 15 16 17 18 18 18 18 18 18 18 18 18 17 17 16 16 16 15 14 13 13 13 13 12 12 12 12 12 12
8 9 11 10 11 11 11 11 11 12 12 12 14 15 16 16 16 16 17 18 18 18 18 18 18 18 18 18 18 17 16 16 16 15 14 14 13 13 12 12 12 11 12 12
6 7 9 10 10 10 11 11 11 12 13 12 13 15 15 16 16 15 16 17 18 18 18 18 18 18 19 19 18 18 17 17 16 16 15 15 14 13 13 13 12 11 12 12
3 5 8 11 11 10 10 10 11 12 12 12 12 14 14 15 16 16 16 16 17 17 17 17 17 18 18 19 19 19 18 17 17 16 16 15 15 15 14 14 13 12 12 12
2 2 4 5 6 5 7 9 9 9 11 12 13 13 12 13 15 16 15 16 17 17 17 18 18 18 18 18 19 19 19 18 17 17 16 16 16 15 14 14 14 13 13 13
1 1 2 3 5 4 6 8 9 9 9 9 10 11 12 12 12 14 14 15 16 17 17 17 17 18 18 18 18 19 19 19 18 17 17 16 16 16 16 15 14 14 14 14
-0 0 1 3 3 4 6 8 7 8 8 9 10 11 12 13 13 13 14 15 16 16 17 17 17 17 17 18 18 18 19 19 18 18 18 17 17 17 17 16 15 15 15 15
-1 -0 0 2 2 5 8 8 9 8 9 10 11 11 12 13 14 14 14 14 15 15 16 17 17 17 17 18 18 18 18 19 18 18 18 18 17 17 17 16 16 16 16 15
-1 -2 -0 2 3 5 6 7 7 8 9 10 11 12 12 12 13 14 15 15 16 16 17 17 17 17 18 18 19 19 19 18 18 18 18 18 18 17 17 17 17 16 16 15
-1 -2 -2 0 3 5 6 7 6 7 7 10 11 11 13 13 13 14 15 16 16 16 16 17 17 17 17 18 18 19 19 19 18 18 18 18 18 18 17 17 16 16 16 15
-3 -4 -3 -2 1 3 4 6 6 7 9 9 10 11 13 13 14 14 15 16 16 16 17 17 17 17 17 18 18 18 19 18 18 17 17 17 17 17 17 17 16 16 15 15
-3 -3 -3 -3 -1 1 2 4 4 7 8 9 10 11 12 13 14 14 15 16 16 16 16 17 17 17 17 17 18 18 18 18 18 17 17 17 17 17 17 17 16 16 15 15
-4 -3 -2 -2 -0 0 2 3 5 6 8 9 10 11 12 13 14 15 15 16 16 16 16 17 17 17 17 17 17 17 18 17 17 17 17 18 18 17 18 17 16 15 14 16
-5 -4 -4 -3 -2 -1 0 2 3 4 6 8 10 11 12 13 14 15 16 16 16 16 16 17 17 17 17 17 17 17 17 17 17 17 17 17 17 17 18 16 16 16 15 15
-5 -5 -4 -3 -3 -1 -0 1 2 3 4 8 10 11 12 13 14 14 15 15 16 15 16 16 16 17 17 17 17 17 17 17 17 17 17 17 17 17 17 17 16 16 15 15
-3 -2 -3 -2 -1 -2 -0 1 0 2 3 6 7 10 12 12 13 13 14 13 14 14 15 15 15 15 16 16 16 16 16 16 16 16 16 16 16 16 17 17 16 17 17 16
Height
3113 3116 3107 3119 3125 3132 3138 3141 3144 3145 3148 3149 3150 3151 3151 3152 3154 3154 3158 3162 3165 3169 3170 3172 3174 3177 3180 3183 3186 3190 3193 3197 3200 3203 3205 3208 3210 3212 3214 3215 3217 3218 3220 3221
3110 3099 3113 3119 3123 3128 3132 3135 3138 3141 3145 3146 3147 3147 3149 3148 3150 3152 3154 3158 3162 3166 3166 3168 3170 3173 3177 3181 3185 3187 3191 3195 3198 3201 3204 3206 3209 3211 3212 3213 3215 3217 3218 3219
3095 3101 3110 3114 3118 3122 3124 3127 3134 3138 3141 3142 3144 3143 3144 3145 3146 3148 3149 3152 3159 3162 3164 3165 3166 3170 3174 3177 3181 3185 3188 3192 3195 3198 3200 3203 3205 3207 3209 3211 3213 3215 3216 3217
3096 3102 3103 3106 3108 3116 3118 3124 3132 3135 3140 3140 3141 3136 3137 3140 3142 3144 3144 3146 3151 3157 3160 3163 3164 3167 3170 3175 3179 3183 3185 3188 3191 3194 3197 3200 3203 3206 3209 3210 3211 3213 3214 3215
3081 3089 3096 3098 3099 3110 3115 3122 3127 3133 3136 3138 3136 3137 3131 3134 3135 3138 3140 3143 3145 3151 3156 3159 3162 3164 3167 3171 3175 3179 3182 3185 3188 3191 3194 3197 3200 3203 3205 3206 3208 3210 3211 3212
3085 3087 3092 3094 3101 3105 3115 3121 3126 3130 3133 3127 3128 3133 3119 3125 3127 3135 3137 3138 3141 3145 3150 3154 3158 3162 3164 3166 3169 3173 3176 3180 3183 3187 3191 3194 3197 3200 3202 3204 3206 3207 3209 3209
3079 3082 3086 3091 3097 3102 3109 3116 3121 3125 3120 3107 3122 3124 3108 3118 3121 3127 3133 3135 3138 3141 3145 3148 3152 3156 3159 3162 3165 3169 3172 3175 3179 3183 3185 3189 3193 3196 3198 3200 3201 3203 3205 3207
3068 3076 3075 3078 3083 3090 3097 3106 3105 3106 3101 3109 3115 3099 3103 3110 3117 3122 3125 3130 3133 3135 3139 3143 3147 3150 3154 3157 3161 3164 3167 3172 3174 3178 3181 3185 3188 3190 3193 3195 3197 3199 3201 3204
3059 3063 3066 3072 3079 3087 3092 3094 3101 3106 3105 3106 3099 3097 3100 3104 3108 3113 3119 3124 3128 3132 3134 3137 3141 3145 3148 3152 3155 3159 3163 3167 3170 3173 3177 3179 3183 3185 3188 3191 3193 3195 3197 3199
3052 3058 3061 3066 3076 3080 3080 3092 3098 3101 3099 3097 3089 3091 3088 3093 3099 3106 3111 3117 3122 3127 3130 3132 3135 3138 3142 3146 3150 3154 3158 3162 3166 3169 3171 3174 3177 3181 3184 3186 3188 3191 3194 3195
3047 3051 3055 3061 3057 3065 3072 3076 3083 3088 3087 3083 3084 3079 3082 3087 3093 3097 3102 3110 3115 3121 3125 3128 3131 3135 3137 3140 3144 3148 3152 3156 3159 3163 3166 3169 3171 3175 3177 3179 3182 3185 3188 3190
3039 3044 3049 3051 3058 3064 3066 3069 3073 3076 3078 3079 3079 3077 3078 3081 3085 3089 3096 3102 3108 3114 3119 3122 3126 3129 3131 3134 3137 3140 3145 3149 3154 3158 3161 3164 3168 3170 3171 3173 3177 3179 3182 3186
3033 3036 3045 3050 3054 3054 3056 3063 3067 3071 3074 3071 3075 3070 3076 3077 3079 3085 3089 3094 3099 3103 3109 3114 3118 3122 3125 3127 3130 3134 3139 3143 3148 3151 3154 3158 3161 3163 3165 3168 3171 3174 3176 3179
3028 3030 3033 3035 3041 3046 3049 3052 3058 3063 3062 3063 3057 3067 3070 3075 3079 3083 3087 3091 3096 3100 3103 3107 3111 3115 3119 3121 3124 3126 3132 3136 3141 3144 3147 3150 3153 3156 3159 3163 3166 3168 3170 3173
3028 3029 3030 3031 3034 3036 3038 3042 3046 3048 3054 3051 3056 3056 3066 3071 3076 3078 3083 3087 3091 3094 3096 3100 3105 3109 3112 3114 3116 3118 3122 3127 3133 3136 3139 3142 3147 3150 3154 3155 3158 3161 3162 3165
3026 3028 3028 3028 3029 3032 3031 3033 3036 3039 3042 3046 3050 3049 3060 3063 3068 3071 3074 3080 3084 3088 3091 3095 3098 3101 3104 3107 3108 3110 3114 3119 3124 3128 3132 3136 3140 3142 3145 3148 3150 3153 3155 3157
3024 3026 3028 3028 3027 3027 3024 3020 3028 3034 3038 3043 3039 3044 3052 3056 3062 3066 3070 3073 3076 3081 3085 3088 3091 3093 3095 3098 3102 3103 3106 3110 3115 3120 3125 3128 3132 3135 3138 3141 3143 3145 3148 3151
3019 3023 3026 3027 3028 3024 3016 3020 3024 3028 3032 3035 3034 3038 3044 3049 3055 3059 3063 3066 3069 3073 3077 3080 3084 3086 3088 3091 3093 3098 3098 3102 3107 3112 3117 3121 3125 3127 3130 3132 3135 3137 3140 3142
3015 3018 3021 3022 3020 3012 3009 3016 3021 3023 3026 3027 3027 3032 3037 3044 3048 3048 3053 3059 3062 3065 3068 3072 3076 3077 3079 3083 3087 3088 3091 3096 3100 3105 3108 3112 3116 3119 3120 3123 3127 3129 3131 3134
3009 3012 3018 3017 3013 3005 3005 3015 3014 3016 3014 3020 3024 3027 3031 3039 3032 3041 3051 3053 3056 3059 3061 3063 3067 3068 3071 3075 3077 3080 3084 3088 3094 3098 3101 3104 3107 3111 3113 3116 3118 3120 3122 3126
3003 3005 3006 3010 3006 2999 3002 3007 3009 3013 3016 3016 3019 3023 3024 3023 3027 3039 3043 3044 3048 3050 3052 3056 3059 3062 3064 3066 3069 3074 3076 3081 3088 3089 3092 3095 3098 3101 3103 3104 3106 3110 3114 3116
2999 2999 3000 3003 3000 2995 2997 3004 3005 3007 3009 3013 3016 3017 3018 3020 3023 3027 3032 3035 3038 3043 3044 3048 3051 3055 3057 3060 3063 3066 3069 3074 3077 3080 3083 3087 3088 3089 3090 3093 3095 3101 3105 3109
2993 2990 2992 2990 2983 2986 2989 2993 2999 3002 3005 3008 3009 3011 3012 3015 3019 3021 3025 3028 3030 3033 3037 3040 3043 3048 3051 3054 3056 3058 3062 3066 3070 3073 3075 3077 3079 3081 3081 3082 3083 3086 3094 3097
2982 2983 2979 2981 2974 2975 2980 2986 2988 2991 2996 2999 3000 3003 3004 3007 3011 3014 3018 3022 3024 3026 3029 3032 3036 3041 3044 3048 3051 3054 3057 3060 3063 3066 3068 3070 3072 3072 3072 3074 3075 3076 3080 3084
2975 2974 2971 2965 2964 2967 2968 2974 2980 2981 2984 2989 2996 2995 2996 2998 3002 3005 3009 3012 3016 3019 3022 3025 3029 3033 3037 3041 3044 3047 3050 3053 3056 3058 3060 3062 3063 3064 3065 3065 3067 3069 3070 3072
2960 2960 2957 2947 2958 2958 2960 2967 2970 2971 2974 2978 2985 2988 2987 2987 2990 2993 2999 3004 3008 3012 3016 3019 3023 3026 3029 3033 3037 3040 3043 3046 3049 3051 3053 3054 3055 3056 3055 3055 3056 3056 3057 3057
Wind_Speed
37 39 50 40 38 29 21 20 18 18 13 14 17 18 12 9 11 17 26 24 21 18 10 18 20 25 27 28 27 26 25 23 22 20 18 16 12 12 11 10 10 11 11 9
36 51 42 39 39 36 33 27 25 23 23 19 18 21 15 13 10 16 20 24 19 22 18 21 22 23 28 28 26 26 24 24 21 20 17 15 12 12 12 12 12 12 11 11
47 27 43 41 40 39 37 35 29 25 10 15 21 23 25 21 17 18 19 26 24 21 18 20 23 22 25 28 27 25 24 23 22 20 20 18 17 16 15 14 14 12 11 12
41 36 15 39 45 42 36 37 28 27 16 21 14 20 20 23 23 19 21 20 24 24 26 16 23 24 24 25 25 24 25 24 22 22 21 18 14 12 9 9 11 13 14 14
43 41 42 27 43 38 32 24 31 26 21 19 22 17 24 21 25 24 19 19 22 25 25 27 19 15 12 25 27 27 26 25 25 23 21 18 17 14 15 15 15 16 15 13
36 34 31 43 24 38 26 12 18 18 19 22 32 23 33 30 33 28 19 19 20 22 27 28 26 24 22 20 29 29 30 28 28 26 24 22 19 17 17 17 16 14 13 12
32 32 30 29 31 27 31 23 12 11 14 16 21 23 42 15 28 31 27 19 22 21 23 29 29 28 26 24 20 32 32 32 31 30 28 25 21 20 19 17 16 15 13 12
32 26 37 35 35 30 36 35 15 14 14 13 22 21 26 32 34 20 25 24 25 24 21 22 24 24 24 25 26 24 24 34 34 33 30 27 25 24 21 21 19 16 15 14
31 29 14 35 33 32 28 41 36 15 6 6 23 25 29 20 25 26 32 23 28 24 20 15 17 23 25 27 26 26 27 22 27 36 31 31 28 27 25 22 21 19 17 18
22 11 30 23 36 32 30 33 22 28 15 13 11 15 26 26 39 31 31 32 27 27 21 17 15 17 19 23 25 26 26 27 25 21 22 30 33 30 27 24 23 21 18 20
33 22 12 27 39 35 33 35 27 25 18 9 7 15 19 25 27 28 36 39 36 28 21 15 15 18 22 23 24 27 28 26 26 28 26 21 21 23 24 25 24 25 22 23
31 25 23 25 24 35 37 33 37 25 19 27 13 12 4 10 18 26 28 26 35 35 29 22 20 19 22 26 28 28 29 30 28 25 25 26 25 24 27 27 25 26 26 25
22 21 22 21 17 31 37 39 35 34 26 26 17 8 22 5 12 13 26 22 26 32 35 35 28 24 19 18 26 30 30 33 30 29 29 28 29 29 30 29 26 26 29 28
14 15 25 23 28 24 25 28 38 40 37 34 38 28 20 20 24 13 8 11 23 22 20 26 19 23 26 25 23 27 31 31 33 33 32 32 31 30 29 27 28 27 29 31
3 2 10 17 18 14 21 27 27 34 44 40 40 45 37 43 37 35 33 26 19 19 26 31 29 27 24 22 24 30 34 35 34 36 36 34 31 31 32 32 30 28 29 31
10 4 8 11 16 11 19 29 34 32 33 29 37 42 26 23 29 32 37 39 29 17 20 20 26 29 26 23 19 26 39 37 38 36 34 32 35 35 35 36 33 31 31 30
11 9 6 8 11 16 25 40 31 29 30 30 39 38 38 40 38 31 23 20 22 24 26 25 24 26 30 24 22 26 35 37 39 38 31 33 35 34 34 35 37 33 33 32
12 9 8 10 5 10 20 22 27 26 28 38 49 47 41 43 42 36 35 32 30 29 27 19 18 23 31 26 25 25 31 35 35 37 36 31 29 33 35 35 35 37 35 36
16 16 8 10 21 24 25 17 16 21 24 23 30 39 41 30 26 29 22 23 18 17 20 24 22 21 25 30 27 31 34 36 38 38 39 38 36 28 36 36 35 37 40 39
20 23 16 10 11 12 13 26 26 25 29 31 21 15 32 36 42 30 19 19 18 19 23 28 25 25 23 32 31 31 32 36 29 27 32 29 36 44 35 36 37 37 36 36
15 19 28 25 19 18 23 15 13 19 13 14 23 27 19 29 46 32 22 25 22 22 26 29 26 26 22 29 31 31 36 33 30 30 28 31 35 38 41 38 39 38 36 32
12 11 17 24 19 25 19 32 28 17 20 17 15 18 31 29 23 36 26 28 27 20 19 30 27 26 23 24 28 35 36 33 38 37 35 32 32 33 36 40 39 39 32 36
18 25 18 23 27 16 13 28 31 39 31 23 22 26 24 24 27 30 31 27 27 29 22 27 28 26 23 22 21 22 31 34 32 35 34 36 33 32 35 38 37 39 43 43
19 22 29 31 42 36 27 28 25 29 34 43 29 24 28 31 29 31 35 34 33 32 27 26 29 28 27 29 28 27 26 26 28 28 28 32 33 32 35 29 35 33 37 41
25 20 22 35 42 44 43 35 37 35 30 30 44 33 30 34 39 41 41 42 39 34 31 28 29 30 30 30 30 29 29 29 29 29 29 31 34 36 39 37 40 42 37 41
34 34 39 47 35 34 42 38 32 29 38 32 39 34 35 36 36 42 42 36 36 34 32 29 28 27 27 28 28 26 26 26 26 26 27 28 30 33 37 40 43 47 47 46
Wind_Direction
196 203 210 212 217 222 223 231 235 242 253 262 269 279 277 263 273 250 231 229 227 212 196 204 201 200 198 194 197 199 200 199 203 209 213 214 212 216 214 208 213 218 223 218
208 221 217 219 224 228 231 235 238 244 243 254 263 268 264 249 253 272 269 238 229 214 212 202 205 208 208 202 201 201 201 204 205 208 211 215 219 219 219 218 218 223 224 227
214 224 223 224 228 227 230 230 232 237 250 248 255 260 251 255 265 260 248 248 238 217 219 213 207 214 210 209 207 206 206 206 207 206 210 211 214 215 217 224 229 232 231 231
224 219 222 227 228 226 229 234 231 240 243 249 245 262 252 250 255 257 247 235 230 220 211 209 214 215 215 212 215 215 211 211 209 212 214 215 220 226 224 226 230 230 235 240
219 219 219 224 224 221 227 234 238 234 241 245 240 251 254 244 241 252 259 229 238 230 222 215 207 197 200 214 218 220 221 217 215 216 219 222 222 227 224 220 224 229 233 239
223 229 228 228 228 223 219 203 218 219 233 241 238 233 255 238 244 244 257 234 226 231 229 225 218 221 214 207 216 218 219 217 216 220 223 227 226 226 230 231 236 240 243 237
213 219 224 220 217 219 207 197 187 211 220 238 237 232 241 236 247 249 243 228 224 235 232 232 228 225 221 217 212 221 222 223 222 224 227 227 229 230 232 232 236 239 240 238
201 211 213 213 214 202 203 201 201 214 235 237 229 238 243 251 252 243 231 231 226 239 239 233 235 234 224 219 220 222 227 228 228 228 230 231 230 232 233 236 238 238 233 226
205 218 211 214 213 199 198 208 214 233 265 253 232 247 252 233 231 234 238 234 232 234 245 242 242 242 241 235 233 228 230 228 232 233 233 234 233 233 233 237 240 241 230 223
216 209 218 219 210 219 217 202 186 212 225 234 222 240 231 232 231 226 231 237 238 231 238 243 243 242 240 237 235 235 232 235 240 239 236 238 239 238 235 234 237 243 236 226
213 212 201 199 202 198 198 199 205 205 214 223 245 245 247 239 235 240 244 242 239 233 237 228 226 235 237 235 230 226 226 224 232 238 240 236 231 229 229 230 234 238 236 228
209 214 213 208 210 209 212 205 202 202 202 227 249 246 142 224 232 228 233 239 238 239 243 232 261 254 238 235 234 228 223 221 223 225 229 235 235 234 239 235 234 239 236 230
198 213 205 228 215 212 216 216 215 218 227 218 211 212 215 240 218 209 228 218 221 224 231 240 246 243 241 241 232 233 226 223 222 224 225 226 231 234 240 238 235 237 238 231
187 206 214 219 218 205 211 214 219 220 226 230 231 236 230 210 225 214 219 233 237 239 235 221 229 241 248 253 253 233 226 224 223 224 224 225 229 237 241 245 241 238 242 234
147 159 198 213 209 225 219 208 200 220 229 232 243 245 247 246 241 249 261 257 241 247 241 234 241 247 255 261 255 235 219 223 223 224 226 228 230 236 236 239 245 243 241 238
264 261 276 275 229 264 248 230 224 226 228 239 244 250 243 248 253 255 259 257 257 246 233 229 249 250 252 251 251 236 220 224 224 224 227 231 231 242 243 237 242 247 242 239
246 251 271 260 278 280 259 231 235 239 238 238 244 248 250 252 253 252 255 255 251 229 234 257 257 256 250 240 235 237 225 217 224 224 225 226 230 241 246 242 241 251 242 240
234 215 219 254 275 244 237 232 234 240 247 247 249 250 249 258 263 268 260 257 257 257 255 232 251 256 246 236 236 231 221 216 221 224 230 229 235 238 245 248 250 255 246 238
227 220 219 225 231 260 249 226 224 234 237 237 250 250 252 254 249 251 244 241 249 260 249 243 249 252 239 237 238 234 229 220 226 229 231 235 237 242 241 243 249 256 253 244
219 223 214 209 234 238 246 233 250 248 263 234 237 257 248 243 246 244 249 242 241 260 261 241 246 236 237 232 239 231 235 226 225 236 238 244 248 243 260 246 245 249 252 255
208 215 218 225 241 248 231 204 222 224 231 229 242 252 263 249 243 248 235 232 242 255 250 233 239 231 244 228 232 228 224 216 223 231 244 248 244 248 254 245 233 234 238 253
228 216 215 222 238 242 231 232 241 240 231 249 250 252 247 259 263 238 231 238 229 239 251 228 233 231 236 237 235 230 224 224 229 239 250 257 244 242 242 237 239 235 231 262
249 233 229 223 234 228 203 220 233 240 247 252 253 259 257 250 241 228 232 220 232 249 255 234 227 227 228 224 227 227 232 229 241 247 254 254 255 251 251 248 238 224 248 241
265 253 244 246 247 243 243 229 223 237 242 243 256 257 246 234 231 233 227 232 237 245 251 238 228 232 228 228 236 242 238 235 238 241 244 248 251 256 261 261 245 236 253 245
259 260 255 254 250 252 242 231 233 237 241 235 237 262 257 244 232 234 235 230 233 241 244 233 224 229 226 229 231 237 242 245 247 249 249 250 253 258 258 259 256 263 262 258
267 266 265 265 261 260 245 232 242 250 240 229 235 249 260 252 242 231 234 228 222 218 217 222 218 218 224 228 233 236 238 242 248 253 256 259 264 266 269 270 268 267 269 270